TimeEDT,TemperatureF,Dew PointF,Humidity,Sea Level PressureIn,VisibilityMPH,Wind Direction,Wind SpeedMPH,Gust SpeedMPH,PrecipitationIn,Events,Conditions,WindDirDegrees,DateUTC
12:15 AM,71.6,69.8,94,30.10,10.0,ENE,4.6,-,N/A,,Clear,70,2013-05-30 04:15:00
12:35 AM,71.6,69.8,94,30.09,7.0,East,3.5,-,N/A,,Clear,80,2013-05-30 04:35:00
12:55 AM,71.6,69.8,94,30.09,7.0,East,3.5,-,N/A,,Clear,100,2013-05-30 04:55:00
1:15 AM,71.6,69.8,94,30.08,7.0,East,3.5,-,N/A,,Clear,100,2013-05-30 05:15:00
1:35 AM,71.6,69.8,94,30.08,7.0,East,4.6,-,N/A,,Clear,100,2013-05-30 05:35:00
1:55 AM,71.6,69.8,94,30.07,7.0,East,3.5,-,N/A,,Clear,100,2013-05-30 05:55:00
2:15 AM,71.6,69.8,94,30.07,7.0,East,3.5,-,N/A,,Clear,90,2013-05-30 06:15:00
2:35 AM,69.8,69.8,100,30.06,7.0,East,3.5,-,N/A,,Clear,80,2013-05-30 06:35:00
2:55 AM,69.8,69.8,100,30.06,7.0,Calm,Calm,-,N/A,,Clear,0,2013-05-30 06:55:00
3:15 AM,69.8,69.8,100,30.06,7.0,Calm,Calm,-,N/A,,Scattered Clouds,0,2013-05-30 07:15:00
3:35 AM,69.8,69.8,100,30.06,7.0,Calm,Calm,-,N/A,,Scattered Clouds,0,2013-05-30 07:35:00
3:55 AM,69.8,69.8,100,30.07,5.0,Calm,Calm,-,N/A,,Scattered Clouds,0,2013-05-30 07:55:00
4:15 AM,69.8,69.8,100,30.07,5.0,Calm,Calm,-,N/A,,Scattered Clouds,0,2013-05-30 08:15:00
4:35 AM,69.8,69.8,100,30.06,4.0,Calm,Calm,-,N/A,,Scattered Clouds,0,2013-05-30 08:35:00
4:55 AM,69.8,69.8,100,30.06,5.0,East,3.5,-,N/A,,Mostly Cloudy,100,2013-05-30 08:55:00
5:15 AM,69.8,69.8,100,30.07,7.0,ESE,6.9,-,0.03,Rain,Rain,110,2013-05-30 09:15:00
5:35 AM,69.8,69.8,100,30.08,10.0,ESE,5.8,-,0.03,,Overcast,110,2013-05-30 09:35:00
5:55 AM,69.8,68.0,94,30.07,10.0,ESE,3.5,-,0.05,Rain,Light Rain,110,2013-05-30 09:55:00
6:15 AM,69.8,69.8,100,30.07,10.0,NE,3.5,-,N/A,,Overcast,40,2013-05-30 10:15:00
6:35 AM,69.8,69.8,100,30.07,10.0,ENE,4.6,-,N/A,,Overcast,60,2013-05-30 10:35:00
6:55 AM,69.8,69.8,100,30.07,10.0,ENE,4.6,-,N/A,,Mostly Cloudy,70,2013-05-30 10:55:00
7:15 AM,69.8,69.8,100,30.08,10.0,Calm,Calm,-,N/A,,Scattered Clouds,0,2013-05-30 11:15:00
7:35 AM,69.8,69.8,100,30.09,10.0,ENE,3.5,-,N/A,,Mostly Cloudy,60,2013-05-30 11:35:00
7:55 AM,71.6,69.8,94,30.09,10.0,ENE,4.6,-,N/A,,Mostly Cloudy,70,2013-05-30 11:55:00
8:15 AM,73.4,69.8,88,30.10,10.0,ENE,5.8,-,N/A,,Mostly Cloudy,70,2013-05-30 12:15:00
8:35 AM,73.4,71.6,94,30.10,10.0,East,5.8,-,N/A,,Mostly Cloudy,80,2013-05-30 12:35:00
8:55 AM,75.2,71.6,89,30.11,10.0,ENE,4.6,-,N/A,,Mostly Cloudy,60,2013-05-30 12:55:00
9:15 AM,75.2,71.6,89,30.11,10.0,East,9.2,-,N/A,,Mostly Cloudy,80,2013-05-30 13:15:00
9:35 AM,77.0,71.6,83,30.10,10.0,ENE,6.9,-,N/A,,Overcast,70,2013-05-30 13:35:00
9:55 AM,71.6,69.8,94,30.13,2.0,SE,16.1,24.2,0.16,Rain,Heavy Rain,130,2013-05-30 13:55:00
10:15 AM,69.8,69.8,100,30.12,2.0,East,6.9,-,0.25,Rain,Heavy Rain,90,2013-05-30 14:15:00
10:35 AM,71.6,71.6,100,30.12,10.0,ENE,9.2,-,0.28,,Mostly Cloudy,70,2013-05-30 14:35:00
10:55 AM,73.4,71.6,94,30.12,10.0,ENE,10.4,-,0.28,Rain,Rain,70,2013-05-30 14:55:00
11:15 AM,73.4,71.6,94,30.12,5.0,East,9.2,-,N/A,,Drizzle,90,2013-05-30 15:15:00
11:35 AM,71.6,69.8,94,30.12,10.0,East,10.4,17.3,N/A,,Light Drizzle,100,2013-05-30 15:35:00
11:55 AM,73.4,71.6,94,30.12,7.0,ESE,10.4,16.1,0.02,Rain,Light Rain,110,2013-05-30 15:55:00
12:15 PM,75.2,71.6,89,30.11,10.0,ESE,11.5,16.1,N/A,,Mostly Cloudy,120,2013-05-30 16:15:00
12:35 PM,77.0,71.6,83,30.11,10.0,ESE,12.7,17.3,N/A,,Mostly Cloudy,120,2013-05-30 16:35:00
12:55 PM,78.8,71.6,78,30.11,10.0,SE,10.4,21.9,N/A,,Overcast,130,2013-05-30 16:55:00
1:15 PM,78.8,71.6,78,30.10,10.0,ESE,9.2,17.3,N/A,,Mostly Cloudy,120,2013-05-30 17:15:00
1:35 PM,77.0,71.6,83,30.10,10.0,ESE,8.1,-,N/A,Rain,Light Rain,120,2013-05-30 17:35:00
1:55 PM,77.0,73.4,89,30.10,10.0,ESE,5.8,-,0.01,,Overcast,110,2013-05-30 17:55:00
2:15 PM,77.0,71.6,83,30.09,7.0,East,6.9,-,N/A,Rain,Heavy Rain,100,2013-05-30 18:15:00
2:35 PM,73.4,71.6,94,30.09,4.0,ESE,5.8,9.2,0.20,Rain,Light Rain,120,2013-05-30 18:35:00
2:55 PM,73.4,71.6,94,30.08,10.0,ESE,6.9,-,0.20,Rain,Light Rain,110,2013-05-30 18:55:00
3:15 PM,77.0,71.6,83,30.07,10.0,ESE,12.7,17.3,N/A,Rain,Light Rain,110,2013-05-30 19:15:00
3:35 PM,78.8,69.8,74,30.06,10.0,ESE,16.1,23.0,N/A,,Scattered Clouds,110,2013-05-30 19:35:00
3:55 PM,73.4,69.8,88,30.07,7.0,SE,17.3,29.9,N/A,Rain,Rain,130,2013-05-30 19:55:00
4:15 PM,77.0,69.8,78,30.06,10.0,ESE,10.4,-,N/A,,Overcast,120,2013-05-30 20:15:00
4:35 PM,78.8,69.8,74,30.05,10.0,ESE,11.5,-,N/A,,Mostly Cloudy,110,2013-05-30 20:35:00
4:55 PM,78.8,71.6,78,30.04,10.0,East,9.2,16.1,N/A,,Scattered Clouds,90,2013-05-30 20:55:00
5:15 PM,77.0,71.6,83,30.04,7.0,ESE,10.4,21.9,N/A,Rain,Light Rain,110,2013-05-30 21:15:00
5:35 PM,78.8,71.6,78,30.03,10.0,East,12.7,18.4,N/A,,Scattered Clouds,90,2013-05-30 21:35:00
5:55 PM,73.4,69.8,88,30.05,5.0,ESE,9.2,25.3,N/A,Rain,Light Rain,120,2013-05-30 21:55:00
6:15 PM,73.4,69.8,88,30.05,10.0,ESE,8.1,-,N/A,,Overcast,120,2013-05-30 22:15:00
6:35 PM,75.2,69.8,83,30.04,10.0,ESE,8.1,-,N/A,,Scattered Clouds,110,2013-05-30 22:35:00
6:55 PM,77.0,69.8,78,30.05,10.0,ESE,8.1,-,N/A,,Scattered Clouds,120,2013-05-30 22:55:00
7:15 PM,75.2,69.8,83,30.05,7.0,SE,9.2,17.3,0.02,Rain,Rain,130,2013-05-30 23:15:00
7:35 PM,73.4,69.8,88,30.07,10.0,ESE,4.6,-,0.02,,Scattered Clouds,110,2013-05-30 23:35:00
7:55 PM,73.4,69.8,88,30.07,10.0,East,4.6,-,0.02,,Clear,100,2013-05-30 23:55:00
8:15 PM,73.4,69.8,88,30.08,10.0,East,4.6,-,N/A,,Clear,100,2013-05-31 00:15:00
8:35 PM,73.4,68.0,83,30.08,7.0,East,6.9,-,N/A,,Clear,100,2013-05-31 00:35:00
8:55 PM,73.4,68.0,83,30.08,10.0,East,3.5,-,N/A,,Clear,90,2013-05-31 00:55:00
9:15 PM,73.4,68.0,83,30.08,10.0,East,5.8,-,N/A,,Clear,90,2013-05-31 01:15:00
9:35 PM,71.6,68.0,88,30.09,10.0,East,4.6,-,N/A,,Clear,100,2013-05-31 01:35:00
9:55 PM,71.6,68.0,88,30.09,10.0,East,4.6,-,N/A,,Scattered Clouds,90,2013-05-31 01:55:00
10:15 PM,71.6,69.8,94,30.09,10.0,East,3.5,-,N/A,,Scattered Clouds,100,2013-05-31 02:15:00
10:35 PM,71.6,69.8,94,30.09,10.0,East,3.5,-,N/A,,Clear,100,2013-05-31 02:35:00
10:55 PM,71.6,69.8,94,30.10,10.0,ESE,8.1,-,N/A,,Mostly Cloudy,120,2013-05-31 02:55:00
11:15 PM,73.4,68.0,83,30.09,10.0,ESE,10.4,16.1,N/A,,Overcast,110,2013-05-31 03:15:00
11:35 PM,71.6,68.0,88,30.09,10.0,ESE,5.8,-,N/A,,Scattered Clouds,110,2013-05-31 03:35:00
11:55 PM,71.6,68.0,88,30.09,10.0,East,5.8,-,N/A,,Clear,100,2013-05-31 03:55:00